Wind_Speed
33 33 33 34 35 35 35 35 35 34 33 33 34 34 35 36 37 38 39 39 39 40 40 40 41 41 42 44 46 47 49 49 49 48 48 47 47 46 46 45 44 43 43 43
33 33 33 34 34 34 34 34 35 34 34 34 35 35 35 36 36 37 38 40 39 39 40 41 41 41 42 44 46 47 49 50 50 49 49 48 48 47 46 45 45 44 44 44
33 33 33 33 33 33 34 34 34 34 35 35 35 35 35 35 36 37 38 39 40 40 40 41 41 41 41 43 45 47 49 50 50 51 51 50 49 49 48 47 46 45 44 46
34 33 32 32 32 32 33 33 33 33 34 35 34 35 34 35 35 37 37 38 39 40 41 41 41 41 41 42 45 47 49 50 51 51 51 51 51 50 49 50 49 48 46 46
33 32 32 32 31 31 31 32 31 31 32 33 33 35 34 34 35 35 36 36 37 38 39 40 41 41 41 42 44 47 49 50 51 52 52 52 52 52 51 50 50 50 49 48
33 32 32 32 31 30 29 30 30 31 30 31 31 34 35 34 33 34 35 35 36 37 38 38 39 41 41 42 45 47 48 50 51 52 52 52 53 53 52 51 51 51 51 50
31 30 30 31 30 30 29 28 29 30 30 30 30 32 34 34 34 34 35 35 36 36 37 37 38 40 41 43 44 46 48 49 51 51 52 52 54 54 53 52 53 53 53 51
31 30 30 30 29 29 29 28 29 29 29 30 29 31 32 32 33 34 35 36 36 36 37 37 38 39 41 43 43 45 47 48 50 51 53 53 53 54 54 54 54 54 54 53
31 30 30 30 29 29 28 28 28 29 29 29 28 29 30 30 31 32 34 35 35 35 36 37 38 38 40 42 43 44 46 46 48 50 52 53 54 53 54 54 53 53 54 54
31 31 29 29 29 29 29 28 28 28 29 29 29 30 30 29 30 31 32 33 33 34 35 37 38 39 40 42 43 44 45 46 47 49 51 52 53 52 53 54 55 54 54 54
32 31 30 30 29 28 27 27 28 29 29 30 31 30 30 30 30 31 32 32 32 33 34 36 37 38 40 42 43 43 45 47 47 48 51 52 53 52 51 52 53 54 55 54
31 32 31 30 29 29 28 27 27 28 29 30 32 30 29 30 30 31 31 32 32 33 34 36 38 38 39 41 43 43 44 46 47 47 50 52 53 53 52 52 54 55 56 56
31 31 31 30 30 30 30 29 29 29 29 30 31 31 29 29 29 30 32 32 32 33 33 35 37 38 39 40 41 43 43 45 47 47 48 50 53 53 53 53 54 54 55 56
32 31 31 31 31 32 31 31 30 30 30 30 31 30 30 30 31 31 32 32 32 32 32 34 36 37 38 40 41 42 42 43 45 46 46 49 51 53 53 53 54 53 53 55
33 32 32 31 32 32 31 31 30 30 30 31 31 30 30 30 31 32 32 32 32 32 32 33 34 36 38 39 41 42 42 43 44 44 45 47 49 50 51 53 54 53 53 54
32 32 32 31 31 31 31 30 29 28 28 29 30 30 30 30 31 31 32 32 32 33 33 33 34 35 37 38 40 41 42 43 44 45 45 47 48 49 50 52 52 53 53 54
33 33 33 32 31 31 30 28 28 28 27 27 29 29 30 31 30 31 31 32 32 33 33 33 34 35 36 37 40 41 42 43 44 44 44 46 48 48 48 49 51 51 52 53
33 33 33 32 32 32 29 28 28 28 28 27 27 28 29 30 30 30 31 32 33 33 33 33 34 35 36 37 38 40 42 43 43 43 44 45 47 48 47 48 49 50 50 52
32 32 32 32 33 32 30 29 29 29 28 28 28 27 29 30 30 29 30 31 32 33 33 33 34 34 36 37 38 39 40 42 43 43 44 44 45 46 47 47 48 49 50 51
32 31 31 32 33 33 32 31 30 30 29 29 29 29 29 30 30 29 30 31 31 32 33 33 34 35 36 37 38 39 40 41 42 43 44 44 43 44 46 47 47 47 48 49
32 32 31 32 33 32 32 31 32 31 30 30 31 31 30 30 30 30 30 30 30 31 32 33 33 34 35 36 37 39 40 41 43 43 43 44 44 44 45 45 46 46 46 47
33 32 32 33 33 32 32 32 32 32 31 31 31 31 31 30 29 29 29 29 29 30 31 32 33 34 34 35 37 38 39 40 41 43 43 44 44 45 45 45 46 46 46 48
33 33 33 33 33 33 33 33 33 33 32 31 31 31 31 30 30 30 29 29 29 30 31 32 32 33 33 34 35 36 37 38 40 41 43 44 45 46 46 46 46 46 46 46
33 33 33 33 33 33 33 32 32 32 31 31 31 31 31 30 29 30 30 30 30 31 31 32 32 32 33 34 34 36 37 37 38 39 41 42 44 45 46 46 46 47 47 46
34 34 34 34 33 32 31 31 31 30 30 30 30 30 30 29 29 29 30 30 30 31 31 30 30 30 31 32 33 34 35 36 36 37 38 39 40 42 43 44 44 45 46 46
33 33 33 33 32 31 29 29 30 30 29 29 29 29 29 29 29 29 29 29 29 29 29 28 28 29 29 30 30 31 32 33 35 36 37 37 38 39 41 42 42 43 44 44
Wind_Direction
301 298 297 296 294 292 287 283 280 279 280 277 274 271 268 263 260 258 255 253 252 250 249 248 247 246 245 243 241 238 236 235 234 235 236 236 237 238 239 239 240 238 237 238
299 298 299 297 295 291 287 283 282 278 277 278 276 273 270 264 261 258 257 256 254 252 250 249 247 246 245 244 241 238 236 236 235 235 236 236 237 237 238 239 240 239 237 236
300 301 301 298 295 291 287 284 283 282 279 278 278 274 271 267 263 260 257 257 255 252 251 250 247 246 246 245 243 240 238 237 236 236 236 236 237 237 238 239 240 240 238 236
299 299 301 299 295 292 288 287 285 284 282 279 277 275 272 270 266 262 259 257 255 252 250 249 248 246 246 245 243 241 239 238 237 236 236 236 237 238 239 240 240 240 239 238
301 300 300 299 296 294 293 290 287 287 284 282 278 277 275 272 269 265 261 258 255 253 250 249 248 247 246 246 244 242 240 238 237 238 238 238 238 239 240 241 240 240 240 240
302 301 299 299 297 297 294 292 289 289 288 284 281 279 277 274 272 269 264 259 257 254 250 249 249 248 247 247 245 242 240 239 238 239 239 239 239 239 241 242 240 240 240 241
303 302 302 302 299 297 294 293 293 293 291 287 285 282 280 277 274 271 268 263 259 255 251 249 249 248 247 246 244 242 241 240 239 239 239 240 242 240 241 242 241 241 241 240
304 302 302 303 301 298 295 291 291 293 294 290 288 286 284 279 276 272 270 266 262 257 253 250 250 250 249 247 244 243 241 240 240 240 239 241 241 241 241 242 242 241 241 241
306 302 300 301 302 300 297 291 289 289 291 290 290 289 286 281 277 273 270 268 264 260 256 254 252 252 251 249 246 244 243 242 241 241 240 240 241 242 242 242 241 240 240 241
304 302 301 300 299 299 296 293 291 288 288 289 289 287 287 284 280 274 270 269 266 262 259 256 255 254 253 251 249 247 245 244 243 243 242 241 242 243 243 242 242 241 241 241
305 302 301 301 298 297 298 295 292 288 285 286 289 288 286 284 282 278 272 270 267 263 259 256 255 254 254 252 249 248 247 246 245 245 244 242 242 242 243 242 242 242 242 243
305 304 303 303 300 297 295 295 294 291 286 284 285 286 286 283 280 277 273 270 269 266 261 257 255 254 254 251 249 250 249 246 246 245 244 243 243 243 243 242 241 243 244 244
307 305 304 305 303 299 295 294 293 290 286 285 283 282 281 281 280 277 274 271 269 267 263 259 256 255 254 251 249 249 248 247 246 245 244 243 244 244 245 244 242 243 243 243
307 305 303 301 301 300 298 295 292 290 287 285 283 281 279 278 278 277 274 272 270 268 265 262 258 255 254 252 249 249 247 247 246 246 244 244 244 245 245 245 243 242 243 244
308 306 305 303 300 299 299 297 294 291 288 285 284 281 280 279 278 277 275 273 271 270 267 263 261 258 256 254 252 250 248 247 248 248 246 245 244 244 245 244 244 244 244 245
308 307 306 305 302 301 300 300 297 294 291 288 285 282 279 278 277 277 276 274 272 271 269 264 262 261 258 256 254 252 249 249 249 249 248 246 244 245 245 245 245 245 245 245
309 308 305 305 304 302 303 303 299 295 293 291 287 285 280 280 279 277 276 274 273 272 270 267 264 262 260 259 257 254 251 251 250 249 250 248 245 245 246 246 246 246 246 246
310 308 306 304 304 304 305 302 301 297 295 292 290 285 283 282 281 279 278 276 274 273 271 270 267 265 262 260 258 256 254 252 251 250 249 248 247 246 245 246 246 246 246 246
313 309 306 305 304 305 305 304 302 300 297 294 292 288 285 283 282 281 280 278 275 273 272 271 269 267 264 261 259 257 255 254 253 251 249 249 248 246 245 246 247 248 248 248
315 311 308 306 304 304 305 303 302 300 298 295 292 289 286 284 283 283 280 278 277 275 273 272 270 268 266 263 261 259 257 256 255 253 250 248 248 248 246 246 247 248 248 249
315 312 308 306 305 305 305 303 301 299 298 295 292 289 287 285 284 283 281 279 278 276 275 273 271 270 268 265 263 261 259 258 257 254 252 250 249 249 248 247 247 248 249 249
316 313 311 309 307 308 306 303 301 299 296 294 292 290 288 286 285 283 282 280 279 278 276 275 273 271 269 267 265 263 261 259 258 255 253 251 251 250 249 249 249 251 251 251
315 315 312 310 308 306 304 303 302 299 295 292 291 290 289 287 286 284 282 281 280 280 279 278 275 272 271 269 267 265 263 261 258 255 253 252 252 252 252 252 251 251 251 252
315 314 313 311 310 307 305 303 301 299 296 293 291 290 289 289 288 287 285 282 282 282 282 280 279 276 274 271 269 267 265 263 260 256 254 253 253 253 254 255 254 253 252 253
314 314 313 312 311 308 306 304 302 300 297 295 292 292 291 291 290 288 287 286 286 285 284 283 282 280 278 276 273 270 267 264 261 258 256 255 255 254 254 254 255 254 254 254
314 314 314 314 314 311 309 306 305 302 300 298 296 294 293 291 290 289 288 288 288 287 286 285 283 281 280 278 275 273 271 267 262 259 258 257 256 256 255 255 255 255 254 254
Height
5679 5676 5672 5669 5666 5664 5661 5658 5656 5656 5654 5653 5652 5652 5652 5652 5654 5656 5657 5660 5662 5665 5668 5671 5674 5677 5681 5684 5688 5692 5697 5702 5708 5713 5718 5723 5727 5732 5736 5741 5745 5748 5752 5757
5670 5667 5664 5660 5657 5654 5651 5649 5647 5647 5645 5643 5643 5643 5643 5643 5644 5646 5647 5649 5652 5655 5657 5660 5663 5667 5670 5674 5678 5682 5687 5692 5697 5703 5708 5712 5717 5722 5726 5730 5734 5738 5743 5747
5661 5660 5655 5651 5647 5645 5642 5640 5639 5637 5636 5633 5633 5633 5634 5633 5635 5636 5638 5639 5641 5644 5647 5650 5653 5657 5660 5664 5667 5671 5676 5681 5687 5692 5697 5702 5707 5711 5715 5719 5723 5728 5732 5737
5652 5650 5646 5642 5638 5636 5634 5632 5631 5628 5626 5624 5624 5622 5625 5625 5626 5627 5628 5630 5632 5634 5637 5640 5643 5647 5650 5653 5657 5661 5665 5670 5676 5680 5685 5690 5695 5700 5705 5709 5713 5718 5722 5727
5644 5641 5637 5633 5631 5628 5626 5624 5622 5620 5617 5615 5614 5613 5615 5616 5616 5618 5619 5620 5622 5625 5627 5630 5633 5637 5640 5643 5647 5650 5654 5659 5664 5669 5674 5678 5684 5689 5693 5698 5703 5707 5712 5716
5636 5633 5629 5626 5623 5620 5618 5617 5615 5612 5609 5607 5607 5606 5606 5606 5608 5609 5610 5611 5613 5616 5618 5621 5624 5627 5630 5633 5636 5640 5644 5648 5653 5658 5662 5667 5672 5677 5682 5687 5692 5696 5701 5706
5628 5625 5622 5619 5616 5614 5611 5609 5607 5603 5601 5600 5600 5597 5598 5599 5599 5600 5601 5603 5604 5606 5609 5611 5614 5617 5620 5623 5626 5629 5633 5637 5642 5647 5651 5656 5660 5665 5670 5675 5680 5685 5690 5695
5620 5618 5614 5611 5609 5606 5604 5602 5599 5596 5594 5593 5592 5590 5591 5591 5591 5591 5592 5594 5596 5598 5600 5602 5605 5607 5610 5613 5616 5619 5623 5627 5631 5635 5640 5644 5648 5653 5658 5663 5668 5673 5679 5684
5612 5610 5606 5604 5602 5599 5596 5594 5592 5590 5587 5586 5585 5584 5584 5583 5583 5583 5584 5585 5587 5589 5591 5593 5595 5597 5600 5602 5605 5609 5612 5616 5620 5624 5628 5633 5637 5641 5646 5651 5656 5661 5666 5672
5605 5603 5601 5598 5595 5592 5590 5587 5585 5582 5579 5578 5578 5578 5577 5576 5576 5576 5576 5577 5578 5580 5581 5583 5586 5587 5589 5592 5595 5598 5601 5605 5608 5613 5617 5621 5626 5629 5634 5639 5644 5649 5654 5659
5599 5596 5594 5591 5588 5585 5583 5581 5577 5575 5573 5571 5570 5573 5570 5569 5568 5568 5568 5568 5569 5570 5572 5573 5575 5577 5579 5581 5584 5587 5590 5593 5597 5601 5605 5609 5613 5617 5622 5627 5631 5637 5642 5647
5592 5589 5587 5585 5582 5578 5576 5574 5571 5569 5567 5564 5563 5566 5563 5561 5560 5559 5559 5560 5561 5561 5562 5564 5565 5567 5569 5571 5573 5576 5578 5581 5585 5588 5592 5597 5601 5605 5609 5614 5619 5624 5629 5634
5586 5583 5580 5577 5576 5572 5569 5566 5564 5561 5559 5557 5556 5559 5555 5553 5552 5551 5551 5552 5552 5552 5553 5554 5555 5557 5558 5560 5562 5565 5567 5570 5573 5576 5580 5584 5588 5593 5597 5602 5606 5611 5616 5621
5580 5577 5575 5572 5568 5564 5562 5560 5557 5554 5551 5550 5549 5548 5548 5546 5545 5544 5543 5543 5543 5543 5544 5544 5545 5547 5548 5549 5551 5554 5556 5558 5562 5565 5568 5572 5576 5580 5585 5589 5593 5598 5602 5607
5573 5571 5567 5564 5561 5558 5555 5553 5550 5547 5544 5542 5542 5541 5539 5538 5536 5536 5535 5535 5534 5534 5535 5535 5536 5537 5538 5539 5541 5543 5545 5548 5550 5553 5556 5560 5564 5568 5572 5576 5581 5585 5589 5594
5567 5564 5561 5558 5555 5551 5548 5545 5542 5540 5537 5534 5533 5533 5531 5530 5529 5528 5527 5526 5526 5526 5525 5525 5526 5527 5528 5529 5530 5532 5534 5536 5539 5541 5545 5548 5552 5556 5560 5564 5568 5572 5576 5581
5560 5556 5553 5551 5547 5543 5542 5539 5535 5533 5530 5528 5526 5525 5523 5522 5521 5520 5519 5518 5517 5516 5516 5516 5516 5517 5517 5519 5520 5521 5523 5525 5527 5530 5533 5536 5539 5543 5547 5551 5555 5559 5563 5568
5554 5549 5545 5542 5540 5536 5537 5532 5528 5526 5523 5521 5518 5517 5515 5514 5513 5511 5510 5509 5508 5507 5507 5506 5506 5507 5507 5508 5508 5510 5511 5513 5515 5518 5520 5523 5526 5531 5534 5538 5542 5546 5550 5554
5547 5543 5539 5535 5531 5529 5528 5525 5521 5518 5517 5514 5511 5509 5507 5506 5505 5504 5502 5500 5499 5498 5497 5497 5496 5497 5497 5497 5498 5499 5500 5502 5504 5506 5508 5511 5514 5518 5522 5526 5530 5533 5537 5541
5541 5536 5533 5528 5524 5521 5522 5518 5513 5511 5509 5507 5504 5501 5499 5497 5497 5497 5494 5492 5490 5489 5488 5487 5487 5486 5486 5486 5487 5488 5489 5490 5492 5494 5496 5499 5502 5506 5510 5514 5517 5521 5524 5528
5535 5530 5527 5522 5517 5515 5513 5510 5506 5504 5503 5499 5496 5493 5491 5489 5488 5487 5484 5483 5481 5480 5479 5477 5477 5476 5476 5476 5476 5476 5477 5479 5480 5482 5484 5487 5490 5494 5497 5501 5504 5507 5511 5514
5529 5524 5520 5515 5511 5510 5505 5502 5499 5496 5493 5490 5487 5485 5483 5481 5479 5477 5475 5474 5472 5471 5469 5468 5467 5466 5465 5465 5465 5465 5466 5467 5468 5470 5472 5475 5478 5481 5484 5488 5491 5494 5497 5501
5523 5519 5513 5510 5508 5502 5497 5494 5491 5488 5485 5482 5479 5477 5475 5473 5471 5469 5467 5465 5464 5462 5460 5459 5457 5456 5455 5454 5454 5454 5455 5455 5456 5458 5460 5463 5465 5468 5471 5474 5477 5480 5483 5486
5516 5512 5507 5502 5499 5495 5490 5486 5483 5479 5476 5474 5471 5469 5466 5464 5462 5460 5458 5457 5455 5453 5451 5449 5448 5447 5446 5445 5444 5444 5444 5444 5445 5446 5448 5450 5453 5455 5458 5461 5464 5466 5469 5472
5510 5504 5500 5495 5492 5487 5483 5479 5475 5472 5468 5465 5463 5460 5458 5456 5454 5452 5450 5448 5446 5444 5442 5440 5439 5437 5436 5435 5434 5434 5434 5434 5434 5435 5437 5439 5441 5443 5445 5448 5450 5453 5455 5458
5504 5498 5493 5489 5484 5480 5476 5472 5468 5464 5460 5457 5455 5452 5449 5447 5446 5444 5442 5439 5438 5436 5434 5432 5430 5428 5427 5426 5425 5424 5423 5423 5424 5425 5426 5428 5430 5431 5433 5435 5437 5439 5442 5444